Date String (YYYY-MM-DD hh:mm:ss) UTC,Instrument flags,Ambient pressure (hPa),Sample flow (lpm),Bypass flow (lpm),Sample temperature (°C),Ambient temperature (°C),ASC tube jacket temperature (°C),LED temperature (°C),Box temperature (°C),Sample RH (%),Span deviation,Mass concentration (μg/m³),Mass concentration (μg/m³),Mass concentration (μg/m³)
DateTimeUTC,F1_M11,P_M11,Q1_M11,Q2_M11,T1_M11,T2_M11,T3_M11,T4_M11,T5_M11,U1_M11,ZSPAN_M11,X0_M11,X2_M11,X1_M11
2023-04-30 00:00:00,,0830.4,5.00,0.00,30.2,28.9,00.0,38.6,31.8,12.1,0000.0,0009.69,0003.98,0002.30
2023-04-30 00:01:00,,0830.5,5.00,0.00,30.3,28.9,00.0,38.6,31.8,12.3,0000.0,0009.61,0004.01,0002.31
2023-04-30 00:02:00,,0830.5,5.00,0.00,30.3,29.0,00.0,38.6,31.9,12.5,0000.0,0009.58,0004.01,0002.31
2023-04-30 00:03:00,,0830.5,5.00,0.00,30.3,27.9,00.0,38.6,31.7,12.1,0000.0,0010.36,0004.07,0002.31
2023-04-30 00:04:00,,0830.4,4.99,0.00,30.2,26.4,00.0,38.5,31.5,12.4,0000.0,0011.22,0004.09,0002.28
2023-04-30 00:05:00,,0830.5,5.02,0.00,30.2,26.2,00.0,38.4,31.4,12.7,0000.0,0011.18,0004.13,0002.28
2023-04-30 00:06:00,,0830.4,5.00,0.00,30.1,26.4,00.0,38.4,31.3,12.9,0000.0,0011.38,0004.19,0002.29
2023-04-30 00:07:00,,0830.5,5.00,0.00,30.0,26.8,00.0,38.4,31.3,12.7,0000.0,0011.42,0004.19,0002.28
2023-04-30 00:08:00,,0830.4,4.98,0.00,30.0,27.1,00.0,38.4,31.4,12.3,0000.0,0011.54,0004.22,0002.28
2023-04-30 00:09:00,,0830.4,5.01,0.00,30.0,27.4,00.0,38.4,31.4,12.2,0000.0,0011.48,0004.16,0002.25
2023-04-30 00:10:00,,0830.4,5.00,0.00,30.0,27.7,00.0,38.4,31.5,12.3,0000.0,0011.59,0004.17,0002.25
2023-04-30 00:11:00,,0830.4,4.99,0.00,30.0,27.9,00.0,38.4,31.5,12.4,0000.0,0012.11,0004.23,0002.27
2023-04-30 00:12:00,,0830.5,5.00,0.00,30.0,28.1,00.0,38.4,31.5,12.5,0000.0,0012.32,0004.26,0002.27
2023-04-30 00:13:00,,0830.4,5.00,0.00,30.0,28.3,00.0,38.4,31.6,12.7,0000.0,0012.13,0004.29,0002.27
2023-04-30 00:14:00,,0830.4,5.00,0.00,30.1,28.4,00.0,38.4,31.6,12.4,0000.0,0011.32,0004.22,0002.25
2023-04-30 00:15:00,,0830.4,5.00,0.00,30.1,28.5,00.0,38.4,31.6,12.2,0000.0,0010.66,0004.18,0002.23
2023-04-30 00:16:00,,0830.5,5.01,0.00,30.1,28.6,00.0,38.4,31.7,12.1,0000.0,0010.43,0004.17,0002.22
2023-04-30 00:17:00,,0830.4,5.00,0.00,30.1,28.7,00.0,38.5,31.7,12.2,0000.0,0010.30,0004.17,0002.23
2023-04-30 00:18:00,,0830.4,5.01,0.00,30.1,28.7,00.0,38.5,31.7,12.1,0000.0,0011.03,0004.18,0002.23
2023-04-30 00:19:00,,0830.5,5.00,0.00,30.1,28.8,00.0,38.5,31.7,12.3,0000.0,0011.44,0004.25,0002.23
2023-04-30 00:20:00,,0830.4,5.00,0.00,30.2,28.8,00.0,38.5,31.7,12.3,0000.0,0011.53,0004.29,0002.25
2023-04-30 00:21:00,,0830.4,5.00,0.00,30.2,28.9,00.0,38.5,31.8,12.3,0000.0,0011.66,0004.29,0002.24
2023-04-30 00:22:00,,0830.4,5.00,0.00,30.2,28.9,00.0,38.5,31.8,12.4,0000.0,0012.24,0004.25,0002.23
2023-04-30 00:23:00,,0830.4,5.00,0.00,30.2,28.9,00.0,38.5,31.8,12.4,0000.0,0012.09,0004.20,0002.20
2023-04-30 00:24:00,,0830.4,5.00,0.00,30.2,28.9,00.0,38.5,31.8,12.5,0000.0,0012.01,0004.14,0002.20
2023-04-30 00:25:00,,0830.4,5.00,0.00,30.3,28.9,00.0,38.5,31.8,12.6,0000.0,0012.21,0004.18,0002.19
2023-04-30 00:26:00,,0830.4,5.01,0.00,30.3,28.9,00.0,38.6,31.9,12.3,0000.0,0012.00,0004.17,0002.20
2023-04-30 00:27:00,,0830.4,5.01,0.00,30.3,29.0,00.0,38.6,31.9,12.1,0000.0,0012.14,0004.17,0002.22
2023-04-30 00:28:00,,0830.4,5.01,0.00,30.3,29.0,00.0,38.6,31.9,12.3,0000.0,0012.15,0004.17,0002.21
2023-04-30 00:29:00,,0830.4,4.99,0.00,30.3,29.0,00.0,38.6,31.9,12.1,0000.0,0011.79,0004.14,0002.21
2023-04-30 00:30:00,,0830.4,4.99,0.00,30.4,29.0,00.0,38.6,31.9,12.1,0000.0,0011.46,0004.12,0002.22
2023-04-30 00:31:00,,0830.3,4.99,0.00,30.4,29.0,00.0,38.6,31.9,12.2,0000.0,0011.44,0004.11,0002.22
2023-04-30 00:32:00,,0830.3,5.00,0.00,30.4,27.5,00.0,38.6,31.8,12.3,0000.0,0011.41,0004.13,0002.22
2023-04-30 00:33:00,,0830.3,5.01,0.00,30.3,26.3,00.0,38.5,31.5,12.4,0000.0,0010.63,0004.14,0002.24
2023-04-30 00:34:00,,0830.3,5.02,0.00,30.2,26.2,00.0,38.4,31.3,12.3,0000.0,0010.74,0004.16,0002.26
2023-04-30 00:35:00,,0830.3,4.99,0.00,30.1,26.4,00.0,38.5,31.2,12.3,0000.0,0011.14,0004.15,0002.28
2023-04-30 00:36:00,,0830.3,5.00,0.00,30.0,26.8,00.0,38.5,31.3,12.6,0000.0,0011.29,0004.13,0002.29
2023-04-30 00:37:00,,0830.3,5.01,0.00,30.0,27.2,00.0,38.4,31.4,12.6,0000.0,0011.23,0004.13,0002.31
2023-04-30 00:38:00,,0830.3,5.00,0.00,30.0,27.5,00.0,38.4,31.4,12.8,0000.0,0011.24,0004.15,0002.33
2023-04-30 00:39:00,,0830.3,4.98,0.00,30.0,27.7,00.0,38.4,31.5,12.7,0000.0,0011.22,0004.13,0002.34
2023-04-30 00:40:00,,0830.3,5.01,0.00,30.0,28.0,00.0,38.4,31.5,12.8,0000.0,0011.05,0004.17,0002.35
2023-04-30 00:41:00,,0830.3,5.00,0.00,30.0,28.2,00.0,38.4,31.6,12.7,0000.0,0011.81,0004.18,0002.35
2023-04-30 00:42:00,,0830.3,5.00,0.00,30.0,28.3,00.0,38.4,31.6,12.6,0000.0,0011.93,0004.14,0002.35
2023-04-30 00:43:00,,0830.3,5.00,0.00,30.1,28.5,00.0,38.4,31.7,12.7,0000.0,0012.21,0004.12,0002.35
2023-04-30 00:44:00,,0830.3,5.00,0.00,30.1,28.6,00.0,38.4,31.7,12.7,0000.0,0012.00,0004.12,0002.36
2023-04-30 00:45:00,,0830.4,5.00,0.00,30.1,28.7,00.0,38.5,31.7,12.7,0000.0,0011.56,0004.10,0002.37
2023-04-30 00:46:00,,0830.4,4.99,0.00,30.1,28.8,00.0,38.5,31.7,12.7,0000.0,0011.93,0004.15,0002.37
2023-04-30 00:47:00,,0830.4,5.00,0.00,30.2,28.8,00.0,38.5,31.8,12.7,0000.0,0011.85,0004.22,0002.40
2023-04-30 00:48:00,,0830.4,4.99,0.00,30.2,28.9,00.0,38.5,31.8,12.6,0000.0,0012.10,0004.29,0002.42
2023-04-30 00:49:00,,0830.3,4.99,0.00,30.2,28.9,00.0,38.5,31.8,12.5,0000.0,0012.31,0004.31,0002.41
2023-04-30 00:50:00,,0830.3,4.99,0.00,30.2,29.0,00.0,38.5,31.8,12.9,0000.0,0012.79,0004.33,0002.41
2023-04-30 00:51:00,,0830.3,5.01,0.00,30.2,29.0,00.0,38.5,31.9,12.7,0000.0,0013.27,0004.31,0002.39
2023-04-30 00:52:00,,0830.4,5.00,0.00,30.3,29.1,00.0,38.6,31.9,12.3,0000.0,0012.69,0004.33,0002.39
2023-04-30 00:53:00,,0830.4,5.01,0.00,30.3,29.1,00.0,38.6,31.9,12.5,0000.0,0012.69,0004.33,0002.38
2023-04-30 00:54:00,,0830.4,5.00,0.00,30.3,29.1,00.0,38.6,32.0,12.8,0000.0,0013.34,0004.38,0002.37
2023-04-30 00:55:00,,0830.4,5.00,0.00,30.3,29.2,00.0,38.6,32.0,12.4,0000.0,0013.23,0004.32,0002.36
2023-04-30 00:56:00,,0830.4,5.01,0.00,30.4,29.2,00.0,38.6,32.0,12.2,0000.0,0013.35,0004.30,0002.35
2023-04-30 00:57:00,,0830.4,5.00,0.00,30.4,29.2,00.0,38.7,32.0,12.2,0000.0,0012.85,0004.27,0002.34
2023-04-30 00:58:00,,0830.4,4.98,0.00,30.4,27.9,00.0,38.6,31.9,12.3,0000.0,0012.99,0004.23,0002.32
2023-04-30 00:59:00,,0830.4,5.01,0.00,30.3,26.4,00.0,38.5,31.6,12.7,0000.0,0013.72,0004.22,0002.30
